Regional Weather Roundup
Issued by NWS

Home | Current Version | Previous Version | Graphics & Text | Print | Product List | Glossary On
Versions: 1 2 3 4 5 6 7 8 9 10 11 12 13 14 15 16 17 18 19 20 21 22 23 24 25 26 27 28 29 30 31 32 33 34 35 36 37 38 39 40 41 42 43 44 45 46 47 48 49 50
000
ASUS43 KLMK 160710
RWRKY
KENTUCKY REGIONAL WEATHER ROUNDUP
NATIONAL WEATHER SERVICE LOUISVILLE KY
300 AM EDT WED APR 16 2014

NOTE "FAIR" INDICATES FEW OR NO CLOUDS BELOW 12,000 FEET
WITH NO SIGNIFICANT WEATHER AND/OR OBSTRUCTIONS TO VISIBILITY.

KYZ001>023-026-027-061>063-070>075-160800-
WESTERN AND SOUTH CENTRAL KENTUCKY

CITY           SKY/WX    TMP DP  RH WIND       PRES   REMARKS
PADUCAH        CLEAR     33  27  78 S3        30.28R
HENDERSON      CLEAR     30  27  86 CALM      30.29S
OWENSBORO      CLEAR     32  28  85 CALM      30.30R
HOPKINSVILLE   CLEAR     32  27  80 CALM      30.29R
BOWLING GREEN  CLEAR     31  23  72 CALM      30.30R
GLASGOW        CLEAR     31  22  69 CALM      30.29S
$$

KYZ024-025-028>034-038-045-046-053-160800-
NORTH CENTRAL KENTUCKY

CITY           SKY/WX    TMP DP  RH WIND       PRES   REMARKS
LOUISVILLE/SDF CLEAR     34  21  59 E3        30.30R
LOUISVILLE/LOU CLEAR     35  19  52 CALM      30.30R
FORT KNOX      CLEAR     31  22  68 E5        30.27S WCI  26
$$

KYZ035>037-039>044-047>052-055>060-089>105-160800-
NORTHEAST KENTUCKY

CITY           SKY/WX    TMP DP  RH WIND       PRES   REMARKS
LEXINGTON      CLEAR     30  18  60 NE3       30.29R
COVINGTON      PTCLDY    31  16  54 E7        30.28R WCI  24
FRANKFORT      CLEAR     27  22  81 CALM      30.28R
$$

KYZ054-064>069-076>088-106>120-160800-
SOUTHEAST KENTUCKY

CITY           SKY/WX    TMP DP  RH WIND       PRES   REMARKS
JACKSON        CLEAR     29  19  66 VRB3      30.25R
LONDON         CLEAR     31  21  66 N3        30.26R
SOMERSET       CLEAR     30  23  74 N3        30.30R
MIDDLESBORO    CLEAR     30  24  78 CALM      30.25R
MONTICELLO     SUNNY    106  32   7 CALM      30.29R HX  99
$$




USA.gov is the U.S. government's official web portal to all federal, state and local government web resources and services.